EWG2LG LGKF-LICJ

Flight info

Callsign EWG2LG
Flight time N/A
Altitude 37000
Route RUTOM DCT BUDIN/N0362F190 L869 PELEN
Aircraft A319/M-SDE3FGHIRWY/LB1

Departure

Time N/A
Airport Kefallinia Airport (LGKF)

Arrival

Time 2026-04-30 18:23
Airport Falcone–Borsellino Airport (LICJ)
Time Latitude Longitude Altitude Speed Heading
2026-04-30 17:39 38.51708 17.39817 37100 ft 382 kts 273°
2026-04-30 17:42 38.51398 17.05991 37096 ft 382 kts 273°
2026-04-30 17:43 38.51213 16.89040 37104 ft 382 kts 273°
2026-04-30 17:44 38.50947 16.68733 37104 ft 381 kts 273°
2026-04-30 17:47 38.50492 16.38425 37103 ft 379 kts 272°
2026-04-30 17:48 38.50108 16.15704 37089 ft 380 kts 272°
2026-04-30 17:50 38.49604 15.89940 37073 ft 378 kts 272°
2026-04-30 17:52 38.49181 15.69811 37060 ft 378 kts 272°
2026-04-30 17:54 38.48473 15.39684 36796 ft 375 kts 272°
2026-04-30 17:55 38.48135 15.26402 34766 ft 372 kts 272°
2026-04-30 17:56 38.47796 15.13416 33278 ft 361 kts 272°
2026-04-30 17:57 38.46743 15.03927 32182 ft 364 kts 260°
2026-04-30 17:58 38.44664 14.94673 31130 ft 360 kts 259°
2026-04-30 17:59 38.41916 14.82494 29702 ft 355 kts 259°
2026-04-30 18:00 38.39210 14.70523 28155 ft 348 kts 259°
2026-04-30 18:00 38.37203 14.61693 27064 ft 344 kts 259°
2026-04-30 18:01 38.35871 14.55873 26361 ft 341 kts 259°
2026-04-30 18:02 38.33890 14.47224 25336 ft 337 kts 259°
2026-04-30 18:02 38.32713 14.38587 24350 ft 329 kts 266°
2026-04-30 18:03 38.31729 14.29934 23339 ft 326 kts 266°
2026-04-30 18:04 38.30718 14.20905 22208 ft 353 kts 265°
2026-04-30 18:05 38.29289 14.08612 20599 ft 348 kts 265°
2026-04-30 18:06 38.27883 13.96516 19041 ft 343 kts 265°
2026-04-30 18:07 38.26491 13.84623 17444 ft 337 kts 264°
2026-04-30 18:08 38.25446 13.75818 16218 ft 334 kts 264°
2026-04-30 18:09 38.24065 13.64209 14650 ft 330 kts 264°
2026-04-30 18:10 38.22680 13.52735 13069 ft 325 kts 264°
2026-04-30 18:11 38.21359 13.41779 11594 ft 301 kts 264°
2026-04-30 18:11 38.20437 13.34184 10857 ft 280 kts 264°
2026-04-30 18:12 38.19562 13.27044 10138 ft 266 kts 264°
2026-04-30 18:13 38.19001 13.22450 9637 ft 260 kts 263°
2026-04-30 18:13 38.19347 13.16629 8885 ft 248 kts 293°
2026-04-30 18:14 38.20908 13.11940 8169 ft 245 kts 294°
2026-04-30 18:15 38.22893 13.05942 7210 ft 245 kts 294°
2026-04-30 18:15 38.24895 12.99953 6268 ft 245 kts 294°
2026-04-30 18:16 38.25399 12.95720 5613 ft 247 kts 265°
2026-04-30 18:16 38.24657 12.91474 4964 ft 250 kts 240°
2026-04-30 18:17 38.23459 12.89884 4641 ft 251 kts 212°
2026-04-30 18:17 38.21829 12.89171 4312 ft 249 kts 182°
2026-04-30 18:17 38.18467 12.89206 3956 ft 234 kts 175°
2026-04-30 18:18 38.16865 12.89240 3793 ft 226 kts 178°
2026-04-30 18:18 38.15319 12.89269 3615 ft 218 kts 177°
2026-04-30 18:18 38.13861 12.89522 3441 ft 207 kts 155°
2026-04-30 18:18 38.12769 12.90579 3280 ft 193 kts 123°
2026-04-30 18:19 38.12269 12.92101 3129 ft 186 kts 94°
2026-04-30 18:19 38.12393 12.93698 2953 ft 182 kts 68°
2026-04-30 18:19 38.12889 12.95176 2666 ft 182 kts 65°
2026-04-30 18:19 38.13395 12.96668 2353 ft 183 kts 66°
2026-04-30 18:20 38.13875 12.98094 2239 ft 171 kts 66°
2026-04-30 18:20 38.14328 12.99445 2095 ft 162 kts 65°
2026-04-30 18:20 38.14770 13.00757 1849 ft 159 kts 66°
2026-04-30 18:20 38.15196 13.02016 1614 ft 150 kts 65°
2026-04-30 18:21 38.15589 13.03172 1460 ft 138 kts 66°
2026-04-30 18:21 38.15973 13.04265 1157 ft 132 kts 63°
2026-04-30 18:21 38.16325 13.05322 861 ft 127 kts 66°
2026-04-30 18:21 38.16664 13.06345 582 ft 125 kts 67°
2026-04-30 18:22 38.16994 13.07354 353 ft 122 kts 66°
2026-04-30 18:22 38.17645 13.09291 84 ft 108 kts 65°
2026-04-30 18:22 38.17898 13.10038 66 ft 71 kts 68°
2026-04-30 18:23 38.18043 13.10478 68 ft 46 kts 66°
2026-04-30 18:23 38.18124 13.10712 64 ft 13 kts 63°
2026-04-30 18:23 38.18175 13.10657 69 ft 15 kts 278°
2026-04-30 18:23 38.18186 13.10528 67 ft 9 kts 276°
2026-04-30 18:24 38.18271 13.10369 61 ft 15 kts
2026-04-30 18:24 38.18328 13.10465 61 ft 13 kts 54°
2026-04-30 18:24 38.18405 13.10509 62 ft 9 kts 20°
2026-04-30 18:25 38.18446 13.10523 62 ft 6 kts 356°
2026-04-30 18:25 38.18513 13.10488 64 ft 0 kts 337°
2026-04-30 18:26 38.18516 13.10486 60 ft 0 kts 335°